| time (UTC) | temp F | wind direction | speed knots | gust knots | rain 1hr in | rain 24hr in | rain mn in | humidity % | barometer mb |
| 20260502213051 | 44 | 149 | 2.6 | 8.7 | 0.00 | 0.00 | 0.00 | 58 | 1015.4 |
| 20260502211537 | 44 | 116 | 5.2 | 8.7 | 0.00 | 0.00 | 0.00 | 59 | 1015.5 |
| 20260502210037 | 43 | 130 | 5.2 | 9.6 | 0.00 | 0.00 | 0.00 | 60 | 1015.6 |
| 20260502204536 | 43 | 127 | 5.2 | 10.4 | 0.00 | 0.00 | 0.00 | 60 | 1015.7 |
| 20260502203039 | 44 | 107 | 6.1 | 10.4 | 0.00 | 0.00 | 0.00 | 60 | 1015.9 |
| 20260502201528 | 44 | 117 | 6.1 | 8.7 | 0.00 | 0.00 | 0.00 | 60 | 1016.1 |
| 20260502200045 | 43 | 76 | 0.9 | 6.1 | 0.00 | 0.00 | 0.00 | 59 | 1016.2 |
| 20260502194525 | 44 | 38 | 6.1 | 9.6 | 0.00 | 0.00 | 0.00 | 54 | 1016.4 |
| 20260502193025 | 44 | 111 | 0.9 | 3.5 | 0.00 | 0.00 | 0.00 | 54 | 1016.5 |
| 20260502191525 | 44 | 141 | 1.7 | 7.8 | 0.00 | 0.00 | 0.00 | 57 | 1016.6 |
| 20260502190024 | 44 | 14 | 7.8 | 12.2 | 0.00 | 0.00 | 0.00 | 61 | 1016.8 |
| 20260502184524 | 45 | 203 | 0.9 | 2.6 | 0.00 | 0.00 | 0.00 | 50 | 1016.7 |
| 20260502183022 | 44 | 271 | 1.7 | 6.1 | 0.00 | 0.00 | 0.00 | 48 | 1016.9 |
| 20260502181526 | 44 | 291 | 0.0 | 3.5 | 0.00 | 0.00 | 0.00 | 48 | 1016.9 |
| 20260502163019 | 42 | 279 | 0.9 | 6.1 | 0.00 | 0.00 | 0.00 | 51 | 1017.1 |
| 20260502161514 | 43 | 360 | 3.5 | 9.6 | 0.00 | 0.00 | 0.00 | 54 | 1017.1 |
| 20260502151508 | 41 | 291 | 2.6 | 10.4 | 0.00 | 0.00 | 0.00 | 58 | 1017.4 |
| 20260502123039 | 37 | 274 | 2.6 | 7.0 | 0.00 | 0.00 | 0.00 | 78 | 1017.6 |
| 20260502121536 | 36 | 300 | 0.9 | 5.2 | 0.00 | 0.00 | 0.00 | 82 | 1017.6 |
| 20260502114527 | 34 | 282 | 0.9 | 5.2 | 0.00 | 0.00 | 0.00 | 87 | 1017.4 |
| 20260502113025 | 33 | 268 | 0.0 | 2.6 | 0.00 | 0.00 | 0.00 | 88 | 1017.4 |
| 20260502111521 | 33 | 275 | 0.0 | 0.0 | 0.00 | 0.00 | 0.00 | 87 | 1017.4 |
| 20260502110019 | 32 | 275 | 0.0 | 1.7 | 0.00 | 0.00 | 0.00 | 87 | 1017.3 |
| 20260502104617 | 32 | 275 | 0.0 | 2.6 | 0.00 | 0.00 | 0.00 | 86 | 1017.1 |
| 20260502103036 | 32 | 269 | 0.0 | 2.6 | 0.00 | 0.00 | 0.00 | 86 | 1017.1 |
| 20260502101512 | 33 | 265 | 0.0 | 2.6 | 0.00 | 0.00 | 0.00 | 85 | 1017.1 |
| 20260502091504 | 34 | 266 | 0.0 | 2.6 | 0.00 | 0.00 | 0.00 | 85 | 1016.7 |
| 20260502070051 | 35 | 258 | 0.0 | 0.0 | 0.00 | 0.00 | 0.00 | 81 | 1016.6 |
| 20260502064551 | 35 | 258 | 0.0 | 0.0 | 0.00 | 0.00 | 0.00 | 80 | 1016.8 |
| 20260502063055 | 35 | 258 | 0.0 | 0.0 | 0.00 | 0.00 | 0.00 | 80 | 1016.8 |
| 20260502061548 | 35 | 258 | 0.0 | 0.0 | 0.00 | 0.00 | 0.00 | 79 | 1016.9 |
| 20260502060046 | 36 | 258 | 0.0 | 0.0 | 0.00 | 0.00 | 0.00 | 78 | 1016.9 |
| 20260502054554 | 36 | 258 | 0.0 | 0.0 | 0.00 | 0.00 | 0.00 | 79 | 1016.9 |
| 20260502053049 | 35 | 258 | 0.0 | 0.0 | 0.00 | 0.00 | 0.00 | 79 | 1016.8 |
| 20260502051543 | 35 | 342 | 0.0 | 0.0 | 0.00 | 0.00 | 0.00 | 78 | 1016.8 |
| 20260502050043 | 35 | 342 | 0.0 | 0.0 | 0.00 | 0.00 | 0.00 | 78 | 1016.8 |
| 20260502044542 | 36 | 342 | 0.0 | 0.0 | 0.00 | 0.00 | 0.00 | 78 | 1016.8 |
| 20260502043043 | 36 | 342 | 0.0 | 0.0 | 0.00 | 0.00 | 0.00 | 76 | 1016.9 |
| 20260502041539 | 36 | 342 | 0.0 | 0.0 | 0.00 | 0.00 | 0.00 | 73 | 1016.9 |
| 20260502040035 | 36 | 342 | 0.0 | 0.0 | 0.00 | 0.00 | 0.00 | 72 | 1016.7 |
| 20260502034535 | 36 | 342 | 0.0 | 1.7 | 0.00 | 0.00 | 0.00 | 72 | 1016.8 |
| 20260502033041 | 36 | 281 | 0.0 | 2.6 | 0.00 | 0.00 | 0.00 | 70 | 1016.8 |
| 20260502031534 | 36 | 355 | 1.7 | 4.3 | 0.00 | 0.00 | 0.00 | 70 | 1016.7 |
| 20260502030042 | 36 | 344 | 2.6 | 7.8 | 0.00 | 0.00 | 0.00 | 71 | 1016.7 |
| 20260502024533 | 36 | 351 | 1.7 | 7.0 | 0.00 | 0.00 | 0.00 | 71 | 1016.7 |
| 20260502023035 | 36 | 17 | 1.7 | 6.1 | 0.00 | 0.00 | 0.00 | 72 | 1016.8 |
| 20260502021534 | 36 | 5 | 1.7 | 3.5 | 0.00 | 0.00 | 0.00 | 73 | 1016.7 |
| 20260502020031 | 36 | 5 | 1.7 | 5.2 | 0.00 | 0.00 | 0.00 | 72 | 1016.6 |
| 20260502014531 | 36 | 25 | 2.6 | 5.2 | 0.00 | 0.00 | 0.00 | 71 | 1016.6 |
| 20260502013030 | 36 | 15 | 2.6 | 5.2 | 0.00 | 0.00 | 0.00 | 71 | 1016.4 |
| 20260502011528 | 36 | 5 | 4.3 | 7.0 | 0.00 | 0.00 | 0.00 | 71 | 1016.4 |
| 20260502010026 | 37 | 5 | 3.5 | 7.0 | 0.00 | 0.00 | 0.00 | 70 | 1016.3 |
| 20260502004525 | 37 | 12 | 2.6 | 5.2 | 0.00 | 0.00 | 0.00 | 69 | 1016.2 |
| 20260502003027 | 37 | 317 | 3.5 | 7.0 | 0.00 | 0.00 | 0.00 | 70 | 1016.1 |
| 20260502001525 | 37 | 16 | 2.6 | 5.2 | 0.00 | 0.00 | 0.00 | 70 | 1016.0 |
| 20260502000021 | 37 | 355 | 1.7 | 5.2 | 0.00 | 0.00 | 0.00 | 70 | 1015.8 |
| 20260501234521 | 37 | 5 | 5.2 | 10.4 | 0.00 | 0.00 | 0.00 | 70 | 1015.6 |
| 20260501233020 | 37 | 355 | 6.1 | 8.7 | 0.00 | 0.00 | 0.00 | 73 | 1015.5 |
| 20260501231519 | 38 | 28 | 7.8 | 10.4 | 0.00 | 0.00 | 0.00 | 72 | 1015.4 |
| 20260501230023 | 38 | 29 | 7.0 | 12.2 | 0.00 | 0.00 | 0.00 | 71 | 1015.2 |
| 20260501224519 | 39 | 31 | 9.6 | 13.0 | 0.00 | 0.00 | 0.00 | 70 | 1015.2 |
| 20260501223032 | 39 | 39 | 8.7 | 13.0 | 0.00 | 0.00 | 0.00 | 72 | 1015.1 |
| 20260501221517 | 39 | 41 | 8.7 | 12.2 | 0.00 | 0.00 | 0.00 | 74 | 1014.9 |
| 20260501220017 | 39 | 53 | 8.7 | 11.3 | 0.00 | 0.00 | 0.00 | 74 | 1015.0 |
| 20260501214526 | 39 | 31 | 9.6 | 13.0 | 0.00 | 0.05 | 0.00 | 74 | 1014.9 |